sat.trackr.live / text

‹ back to catalog

STARLINK-30898

NORAD 58387 · 2023-178P

PAYLOAD ACTIVE UNKNOWN

§ Identity

Operator
Country
US
Launch date
2023-11-20
Launch site
AFWTR
Launch vehicle
Mass (kg)
RCS (m²)

Purposes: comms

External: N2YO · Heavens-Above · Gunter

§ Orbital elements

Epoch: 2026-09-20T04:03:34.490880Z

Period
93.85 min
Inclination
53.1607°
Eccentricity
0.0000476
Mean motion
15.34406423 rev/d
Perigee alt
462.4 km
Apogee alt
463.0 km
Semi-major
6,840.8 km
B*
4.9177e-5
RAAN
173.6019°
Arg perigee
71.3321°
Mean anomaly
288.7733°
Rev number
15,972

§ Raw data

STARLINK-308981 58387U 23178P   26263.16914920  .00001286  00000+0  49177-4 0  99912 58387  53.1607 173.6019 0000476  71.3321 288.7733 15.34406423159720

JSON: /api/v1/satellites/58387 · /tle

For live sub-satellite position, see the globe view (requires WebGL).

§ Visibility from observer

Set your observer location to see the next 7 days of passes ≥ 10°. The values pass through the URL so the page stays shareable.

No JS? Fill the form by hand. The geolocation button needs JavaScript.